Location: *
(43.6500°N, 5.3475°E)
Time: 02:59:22
(UTC+00:00)

Daily predictions for brighter satellites

Satellite Brightness Start Highest point End
(mag) Time Altitude Azimuth Time Altitude Azimuth Time Altitude Azimuth
CZ-4C R/B 3.7 03:14:58 47° NE 03:14:58 47° NE 03:22:21 10° ESE
Cosmos 2297 Rocket 4.4 03:55:50 14° NNE 03:55:50 14° NNE 03:56:42 10° NNE
Cosmos 407 Rocket 4.4 03:53:40 46° ESE 03:53:40 46° ESE 03:57:52 10° SE
USA 234 3.2 03:46:33 10° NE 03:52:36 78° ENE 03:52:36 78° ENE
Cosmos 2227 Rocket 4.3 03:59:49 16° N 03:59:49 16° N 04:00:57 10° NNE
Lacrosse 5 3.9 04:12:21 17° S 04:12:21 17° S 04:13:37 10° SSE
GEOS 3 Rocket 3.7 04:08:04 10° SE 04:12:57 68° ENE 04:12:57 68° ENE
Meteor 2-11 Rocket 4.4 04:11:18 10° S 04:17:23 78° E 04:23:31 10° N
Cosmos 2034 Rocket 3.9 04:18:41 10° S 04:25:00 89° E 04:31:24 10° N
SL-16 R/B 3.1 04:34:24 33° SSW 04:34:24 33° SSW 04:37:47 10° S
Cosmos 1624 Rocket 3.9 04:35:03 69° SW 04:35:37 78° WNW 04:41:00 10° NNE
Cosmos 1603 4.1 04:35:59 28° N 04:39:00 63° ENE 04:44:40 10° SE
ATLAS 5 CENTAUR R/B 3.7 04:42:54 16° N 04:42:54 16° N 04:44:30 10° NNE
Cosmos 2056 Rocket 3.3 04:40:46 70° W 04:41:02 72° WNW 04:46:10 10° NNE
SKYMED 2 3.9 04:36:46 10° SSE 04:41:04 65° ENE 04:42:43 36° N
Cosmos 1190 Rocket 3.9 04:44:08 63° W 04:44:23 65° WSW 04:49:33 10° S
Cosmos 676 Rocket 4.0 04:43:37 34° NNW 04:45:57 80° ENE 04:51:14 10° SSE
STARLINK 1063 4.4 04:49:03 34° NE 04:49:03 34° NE 04:52:01 10° E
Geosat 3.9 04:45:42 10° SSE 04:50:43 84° WSW 04:52:34 41° NNW
Cosmos 1092 Rocket 4.0 04:44:44 10° N 04:50:56 82° E 04:57:05 10° S
STARLINK 1064 4.3 04:51:47 36° NNE 04:51:47 36° NNE 04:54:54 10° E
Meteor 1-27 Rocket 4.1 04:54:04 44° W 04:54:20 44° W 04:59:53 10° SSW
STARLINK 1041 4.2 04:54:38 38° NNE 04:54:38 38° NNE 04:57:54 10° E
Cosmos 1954 Rocket 3.9 04:53:26 30° NNW 04:56:09 89° SW 05:01:27 10° SSE
Okean 1 4.3 04:53:54 12° N 04:57:25 45° ENE 05:01:14 10° SSE
STARLINK 1038 4.1 04:57:30 39° NNE 04:57:37 39° NNE 05:00:55 10° E
MOS 1-B 4.4 04:53:41 10° NNE 04:59:30 83° ESE 05:05:16 10° SSW
Okean 1-7 3.1 04:57:00 17° N 05:00:24 76° E 05:04:47 10° SSE
STARLINK 1046 4.0 05:00:21 40° NNE 05:00:36 41° NNE 05:03:55 10° E
Cosmos 1420 Rocket 4.0 04:55:39 10° SSW 05:00:51 80° ESE 05:06:03 10° NNE
CZ-4C R/B 3.2 05:00:12 33° WNW 05:03:25 51° WSW 05:11:20 10° S
STARLINK 1039 3.9 05:03:13 41° N 05:03:35 43° NNE 05:06:56 10° E
Cosmos 1461 2.8 05:03:45 54° WNW 05:04:33 69° WSW 05:08:55 10° SSE
STARLINK 1045 3.9 05:04:20 41° N 05:04:46 43° NNE 05:08:08 10° ESE
Cosmos 1340 4.1 05:01:51 10° SSE 05:05:20 38° E 05:08:51 10° NNE
Meteor 1-20 Rocket 4.3 04:59:40 10° S 05:05:31 88° E 05:11:24 10° N
Cosmos 724 4.5 05:03:51 33° WSW 05:06:09 49° NW 05:11:55 10° NNE
Helios 1A Rocket 3.5 05:07:42 10° NNE 05:11:41 57° ESE 05:15:38 10° S
Cosmos 1602 4.1 05:08:04 10° S 05:11:51 64° E 05:15:39 10° NNE
OE (NEXTSAT) 4.2 05:12:01 63° WNW 05:12:31 87° NNE 05:16:04 10° ESE
CZ-4B DEB 4.1 05:09:49 10° NNE 05:15:22 83° WNW 05:20:54 10° SSW
Meteor 1-18 Rocket 4.2 05:13:48 10° N 05:19:24 88° E 05:24:58 10° S
Cosmos 2263 Rocket 2.1 05:14:00 10° SSW 05:19:36 81° WNW 05:25:12 10° NNE
Starlink Launch 2 leader 2.4 05:20:11 71° ESE 05:20:11 71° ESE 05:22:25 10° SE
Cosmos 2084 Rocket 4.0 05:19:56 35° W 05:21:05 42° WSW 05:25:13 10° S
Cosmos 1484 Rocket 3.3 05:18:28 10° N 05:22:08 37° WNW 05:25:43 10° SW
Starlink Launch 2 trailer 2.1 05:23:44 81° SSE 05:23:44 81° SSE 05:26:06 10° SE
SWAS 4.5 05:21:08 10° SSW 05:25:27 85° ESE 05:29:48 10° NNE
Cosmos 2221 Rocket 4.1 05:22:11 10° N 05:26:34 61° E 05:30:55 10° SSE
Cosmos 1452 Rocket 3.4 05:22:23 10° SSW 05:27:39 77° WNW 05:32:58 10° NNE
PSLV R/B 4.5 05:24:53 10° N 05:28:36 34° WNW 05:32:21 10° SW
COSMO-SKYMED 1 3.1 05:25:04 10° SSW 05:29:06 38° W 05:31:14 23° NW
DMSP B5D1-3 4.5 05:24:55 10° SSE 05:30:04 89° WSW 05:35:16 10° NNW
SL-23 DEB 3.5 05:28:51 16° SW 05:31:16 69° SE 05:34:32 10° ENE
USA 116 4.1 05:28:40 10° S 05:32:54 58° W 05:37:42 10° NNW
Cosmos 2227 4.4 05:27:28 10° SW 05:33:02 49° WNW 05:38:40 10° NNE
Cosmos 1850 Rocket 4.1 05:29:15 10° NNW 05:34:37 83° ENE 05:39:58 10° SSE
Cosmos 1428 Rocket 4.5 05:28:53 10° NNW 05:35:11 74° W 05:41:28 10° S
NOAA 6 3.9 05:30:04 10° NNE 05:35:12 81° WNW 05:40:19 10° SSW
Cosmos 1140 Rocket 4.4 05:33:38 23° WNW 05:35:25 28° W 05:39:50 10° SSW
USA 234 3.8 05:29:48 10° NE 05:35:43 39° NNW 05:39:57 18° WNW
SMAP 4.4 05:32:43 10° NNE 05:37:10 43° E 05:41:35 10° S
ADEOS Rocket 4.0 05:30:30 10° SE 05:37:17 53° ENE 05:43:27 10° N
Okean O Rocket 1.5 05:34:19 10° N 05:38:40 67° WNW 05:43:02 10° SSW
Cosmos 2227 Rocket 4.2 05:41:40 10° NNW 05:41:40 10° NNW 05:41:41 10° NNW
Cosmos 44 4.0 05:38:21 10° SSW 05:43:01 53° ESE 05:47:28 10° NE
Cosmos 1703 Rocket 4.3 05:40:36 16° NW 05:43:24 31° W 05:47:16 10° SSW
FENGYUN 3A 3.8 05:39:49 10° N 05:45:03 52° WNW 05:50:13 10° SW
ALOS 2.6 05:41:17 10° N 05:45:41 42° WNW 05:50:04 10° SW
CZ-4B R/B 3.2 05:40:59 10° N 05:46:32 69° WNW 05:52:09 10° SSW
STARLINK 1050 3.1 05:45:54 22° WNW 05:48:00 84° SW 05:51:27 10° SE
FALCON 9 DEB 2.9 05:47:46 29° W 05:48:25 36° SW 05:50:35 10° SSE
STARLINK 1027 2.7 05:48:25 24° WNW 05:49:58 67° SW 05:52:53 10° SE
STARLINK 1028 2.7 05:48:39 24° WNW 05:50:13 67° SW 05:53:08 10° SE
STARLINK 1021 2.7 05:48:52 24° WNW 05:50:26 66° SW 05:53:20 10° SE
STARLINK 1019 2.8 05:49:03 24° WNW 05:50:39 66° SW 05:53:36 10° SE
STARLINK 1012 2.7 05:49:17 24° WNW 05:50:52 66° SW 05:53:46 10° SE
STARLINK 1055 3.1 05:48:41 21° WNW 05:50:53 79° SW 05:54:21 10° SE
STARLINK 1010 2.7 05:49:31 23° WNW 05:51:07 65° SW 05:54:01 10° SE
STARLINK 1026 2.7 05:49:44 23° WNW 05:51:20 65° SW 05:54:13 10° SE
Cosmos 1733 Rocket 3.5 05:47:12 10° S 05:51:27 63° E 05:55:45 10° NNE
STARLINK 1013 2.8 05:49:57 23° WNW 05:51:34 65° SW 05:54:27 10° SE
STARLINK 1009 2.8 05:50:10 23° WNW 05:51:47 64° SW 05:54:41 10° SE
STARLINK 1034 2.8 05:50:16 23° WNW 05:51:55 64° SW 05:54:51 10° SE
STARLINK 1015 2.8 05:50:23 23° WNW 05:52:01 64° SW 05:54:55 10° SE
Cosmos 2026 Rocket 4.2 05:46:18 10° NNW 05:52:11 48° W 05:58:07 10° SSW
SJ-7 4.3 05:48:13 10° N 05:52:13 65° WNW 05:56:10 10° SSW
STARLINK 1016 2.8 05:50:35 23° WNW 05:52:14 64° SW 05:55:08 10° SE
STARLINK 1008 2.8 05:50:49 23° WNW 05:52:28 63° SW 05:55:21 10° SE
STARLINK 1014 2.8 05:51:02 22° WNW 05:52:41 63° SW 05:55:35 10° SE
STARLINK 1025 2.8 05:51:15 22° WNW 05:52:54 62° SW 05:55:48 10° SE
STARLINK 1052 2.8 05:51:20 22° WNW 05:53:01 62° SW 05:55:55 10° SE
STARLINK 1017 2.8 05:51:27 22° WNW 05:53:07 62° SW 05:56:00 10° SE
STARLINK 1022 3.1 05:50:51 20° WNW 05:53:09 76° SW 05:56:36 10° SE
STARLINK 1023 2.8 05:51:41 22° WNW 05:53:21 62° SW 05:56:15 10° SE
Cosmos 1844 Rocket 4.1 05:48:10 10° S 05:53:22 41° ESE 05:58:34 10° NE
STARLINK 1007 2.8 05:51:53 22° WNW 05:53:34 61° SW 05:56:28 10° SE
STARLINK 1048 2.8 05:52:07 22° WNW 05:53:48 61° SW 05:56:41 10° SE
STARLINK 1049 2.8 05:52:20 22° WNW 05:54:03 61° SW 05:56:55 10° SE
STARLINK 1051 2.8 05:52:32 21° WNW 05:54:15 60° SW 05:57:08 10° SE
STARLINK 1037 2.8 05:52:46 21° WNW 05:54:29 60° SW 05:57:22 10° SE
STARLINK 1059 2.8 05:52:58 21° WNW 05:54:42 60° SW 05:57:35 10° SE
STARLINK 1057 2.8 05:53:12 21° WNW 05:54:56 59° SW 05:57:49 10° SE
STARLINK 1068 2.9 05:53:38 21° WNW 05:55:23 59° SW 05:58:16 10° SE
STARLINK 1029 2.9 05:53:51 21° WNW 05:55:36 58° SW 05:58:29 10° SE
STARLINK 1040 3.0 05:53:53 21° WNW 05:55:37 54° SW 05:58:30 10° SE
STARLINK 1060 2.9 05:54:04 21° WNW 05:55:50 58° SW 05:58:42 10° SE
STARLINK 1030 2.9 05:54:14 20° WNW 05:56:03 58° SW 05:58:58 10° SE
STARLINK 1020 2.9 05:54:29 20° WNW 05:56:16 57° SW 05:59:08 10° SE
Cosmos 1346 Rocket 2.8 05:52:39 10° SSW 05:56:26 52° WNW 06:00:15 10° N
Meteor 1-14 Rocket 4.5 05:50:45 10° SSW 05:56:30 52° WNW 06:02:22 10° N
STARLINK 1042 3.2 05:54:08 18° WNW 05:56:34 71° SW 06:00:00 10° SE
Cosmos 405 4.2 05:53:21 10° N 05:56:46 42° ENE 06:00:08 10° SSE
STARLINK 1033 2.9 05:55:09 20° WNW 05:56:57 56° SW 05:59:49 10° SE
STARLINK 1031 2.9 05:55:22 20° WNW 05:57:11 56° SW 06:00:03 10° SE
STARLINK 1024 2.9 05:55:32 20° WNW 05:57:23 56° SW 06:00:17 10° SE
STARLINK 1035 2.9 05:55:47 20° WNW 05:57:37 55° SW 06:00:29 10° SE
STARLINK 1032 2.9 05:56:00 19° WNW 05:57:50 55° SW 06:00:42 10° SE
STARLINK 1011 3.0 05:56:11 19° WNW 05:58:04 55° SW 06:00:57 10° SE
STARLINK 1036 3.0 05:56:26 19° WNW 05:58:17 54° SW 06:01:09 10° SE
Okean 3 3.4 05:54:32 10° N 05:58:44 78° W 06:02:56 10° S
STARLINK 1047 3.0 05:56:52 19° WNW 05:58:45 54° SW 06:01:36 10° SE
STARLINK 1056 3.2 05:56:56 17° WNW 05:59:28 67° SW 06:02:54 10° SE
Cosmos 1869 Rocket 4.2 05:56:08 10° SW 06:00:00 31° WNW 06:03:54 10° N
Cosmos 2279 Rocket 4.0 05:55:42 10° SSW 06:01:48 62° W 06:08:00 10° N
Cosmos 1943 3.7 05:57:19 10° NW 06:02:28 38° WSW 06:07:37 10° S
STARLINK 1054 3.3 05:59:51 16° WNW 06:02:30 63° SW 06:05:56 10° SE
ATLAS CENTAUR R/B 3.7 06:02:34 10° N 06:05:14 16° NE 06:07:46 10° ENE
STARLINK 1062 3.3 06:02:33 15° WNW 06:05:19 59° SW 06:08:44 10° SE
H-2A R/B 2.6 06:02:19 10° NNE 06:06:04 88° WNW 06:09:50 10° SSW
STARLINK 1053 3.4 06:05:38 14° WNW 06:08:31 55° SW 06:11:54 10° SE
BREEZE-M DEB (TANK) 3.4 06:01:27 10° W 06:08:36 42° NNW 06:11:23 10° NE
AQUARIUS 4.3 06:04:08 10° NNE 06:08:39 83° E 06:13:09 10° SSW
SL-24 R/B 4.5 06:05:59 10° S 06:10:19 44° W 06:14:24 10° NNW
STARLINK 1061 3.5 06:08:12 13° WNW 06:11:10 52° SW 06:14:33 10° SE
STARLINK 1067 3.6 06:11:04 12° WNW 06:14:09 49° SW 06:17:31 10° SE
FALCON 9 DEB 4.1 06:13:24 11° W 06:14:58 18° SW 06:16:41 10° S
STARLINK 1058 3.7 06:13:47 11° WNW 06:16:58 46° SW 06:20:18 10° SSE
Cosmos 1655 Rocket 4.0 06:11:31 10° NNW 06:17:38 63° W 06:23:45 10° S
Cosmos 1331 Rocket 4.0 06:14:41 10° SSW 06:19:50 84° WNW 06:25:02 10° NNE
STARLINK 1043 3.8 06:16:42 10° WNW 06:19:59 43° SW 06:23:18 10° SSE
Cosmos 1674 Rocket 3.5 06:16:42 10° N 06:21:05 89° WSW 06:25:24 10° S
FALCON 9 DEB 4.4 06:19:56 10° W 06:21:26 15° SW 06:22:58 10° S
CZ-4 R/B 3.5 06:18:42 10° NNE 06:22:11 31° E 06:25:42 10° SSE
PSLV R/B 3.6 06:20:06 10° W 06:22:23 37° S 06:24:41 10° ESE
STARLINK 1065 3.9 06:19:34 10° WNW 06:22:52 40° SW 06:26:09 10° SSE
STARLINK 1044 4.0 06:21:00 10° WNW 06:23:30 27° SW 06:25:59 10° SSE
NOAA 12 4.5 06:18:36 10° NNE 06:23:52 72° ESE 06:29:04 10° S
Meteor 1-5 Rocket 4.3 06:18:52 10° SSW 06:24:49 73° W 06:30:43 10° N
NOSS 3-2 (A) 4.4 06:19:56 10° SSW 06:25:25 53° ESE 06:31:36 10° NE
STARLINK 1063 4.0 06:22:40 10° WNW 06:25:56 38° SW 06:29:11 10° SSE
IRIDIUM 104 4.4 06:22:12 10° N 06:27:27 87° E 06:32:40 10° S
Meteor 2-4 Rocket 3.9 06:23:10 10° NNW 06:28:28 50° W 06:33:38 10° SSW
STARLINK 1064 4.1 06:25:33 10° WNW 06:28:46 36° SW 06:31:59 10° SSE
Cosmos 1110 Rocket 4.0 06:25:42 10° SSW 06:30:49 61° WNW 06:35:58 10° NNE
USA 81 4.2 06:25:45 10° N 06:31:03 81° E 06:36:19 10° S
USA 238 DEB 4.1 06:27:16 10° SSW 06:33:53 71° ESE 06:40:44 10° NE
USA 238 4.1 06:27:23 10° SSW 06:33:59 71° ESE 06:40:50 10° NE
